[[{"header":{"parameterUnit":"m.s-1","parameterCategory":1,"la1":30.2991,"la2":30.254,"lo1":-89.0895,"lo2":-89.0444,"dy":0.0017,"dx":0.0017,"nx":28,"ny":28,"refTime":"2024-03-08T09:00:00:Z","depth":0,"parameterNumber":2,"parameterNumberName":"U-component_of_WINDS"},"data":[0,0,0,0,0,0,0,0,0,0,0,0,0,0,0,0,0,0,0,0,0,0,0,0,0,0,0,0,0,0,0,0,0,0,0,0,0,0,0,0,0,0,0,0,0,0,0,0,0,0,0,0,0,0,0,0,0,0,1.3517,1.3517,0,1.3533,1.3534,1.3534,1.3534,1.3534,1.3534,1.3534,1.355,1.355,1.3551,0,0,0,0,0,0,0,0,0,0,0,0,0,1.3487,1.3488,1.3517,1.3517,1.3518,1.3533,1.3534,1.3534,1.3534,1.3534,1.3534,1.3534,1.355,1.355,1.3551,0,0,0,0,0,0,0,0,0,0,0,0,0,1.3502,1.3488,1.3517,1.352,1.352,1.3533,1.3534,1.3534,1.3534,1.3534,1.3534,1.3533,1.3549,1.355,1.3551,1.3563,0,0,1.3554,1.3554,0,0,0,0,0,0,0,0,1.3501,1.3503,1.3519,1.352,1.352,1.3532,1.3529,1.3544,1.3534,1.3529,1.3534,1.3533,1.3544,1.3545,1.3549,1.3564,1.3564,1.3554,1.3555,1.3555,1.3555,0,0,0,0,0,0,0,1.35,1.3502,1.3524,1.3519,1.352,1.352,1.3522,1.3532,1.3538,1.3529,1.3529,1.3531,1.3544,1.3548,1.3549,1.3564,1.3554,1.3555,1.3555,1.3556,1.3591,1.3591,0,0,0,0,0,0,1.3498,1.3501,1.3523,1.3524,1.351,1.3521,1.3523,1.3528,1.3538,1.3539,1.3532,1.3531,1.3547,1.3548,1.355,1.3565,1.3555,1.3556,1.3556,1.359,1.3591,1.3591,0,0,0,0,0,0,1.3498,1.35,1.3522,1.3513,1.3516,1.3522,1.3528,1.3529,1.3533,1.354,1.3541,1.3534,1.3547,1.3549,1.356,1.3565,1.3556,1.3557,1.359,1.3591,1.3591,1.3594,0,0,0,0,0,0,1.3497,1.35,1.3504,1.3513,1.3516,1.3532,1.3528,1.3529,1.3534,1.3534,1.3542,1.3544,1.3546,1.3559,1.3561,1.3566,1.3558,1.359,1.359,1.3591,1.3593,1.3595,1.3596,0,0,0,0,0,1.3496,1.3504,1.3504,1.3507,1.3521,1.3532,1.3534,1.3537,1.3535,1.3539,1.3544,1.3543,1.3565,1.356,1.3562,1.3568,1.3589,1.359,1.3591,1.3593,1.3594,1.3596,0,0,0,0,0,0,1.3495,1.3505,1.3506,1.3517,1.3524,1.3532,1.3538,1.3539,1.3546,1.3545,1.3549,1.3551,1.3563,1.3567,1.3561,1.3581,1.3577,1.3578,1.3577,1.3579,1.358,1.3578,1.3559,0,0,0,0,0,1.3497,1.3504,1.3513,1.3522,1.3525,1.3531,1.3536,1.3538,1.3545,1.3548,1.3553,1.356,1.3569,1.3574,1.3582,1.3595,1.3597,1.36,1.3601,1.3602,1.3603,1.3611,1.3612,1.3594,1.3594,1.3594,0,0,1.3499,1.3505,1.351,1.3522,1.3527,1.3536,1.3533,1.3542,1.3548,1.3549,1.356,1.3565,1.3573,1.3585,1.3591,1.3589,1.3609,1.3603,1.3604,1.3604,1.3612,1.3613,1.3615,1.3595,1.3595,1.3594,0,0,1.3508,1.3513,1.3522,1.3528,1.3537,1.3541,1.3543,1.3552,1.3555,1.3566,1.3567,1.3575,1.3589,1.3595,1.36,1.3613,1.3613,1.3616,1.3621,1.3629,1.363,1.3631,1.3636,1.3638,1.3617,1.3617,1.3617,0,1.3509,1.3522,1.3526,1.3535,1.3541,1.3543,1.3552,1.3557,1.3568,1.3572,1.357,1.3589,1.3594,1.3608,1.3612,1.3616,1.3619,1.3615,1.363,1.3631,1.3632,1.3637,1.3639,1.3617,1.3617,1.3617,1.3617,0,1.3524,1.3533,1.3539,1.355,1.3556,1.3565,1.3571,1.3577,1.3579,1.3584,1.3596,1.3603,1.3613,1.3617,1.3618,1.3631,1.363,1.3629,1.3625,1.3634,1.3639,1.364,1.3618,1.3618,1.3618,1.3618,0,0,1.3531,1.3546,1.3548,1.3553,1.3564,1.3571,1.3581,1.3591,1.3596,1.3604,1.3612,1.3625,1.3625,1.363,1.3633,1.364,1.365,1.3638,1.3638,1.364,1.3666,1.3666,1.3668,1.3651,1.3651,1.3652,1.3665,0,1.3541,1.3558,1.3563,1.3577,1.3586,1.3589,1.3597,1.3605,1.361,1.3618,1.3624,1.3633,1.3631,1.3635,1.3642,1.3648,1.3655,1.3647,1.3659,1.3659,1.3656,1.367,1.367,1.3682,1.3667,1.3667,1.3667,0,1.3554,1.3563,1.3578,1.3589,1.3593,1.36,1.3611,1.3618,1.3628,1.3631,1.3638,1.3641,1.3652,1.3648,1.3663,1.3657,1.3663,1.3667,1.3667,1.3668,1.3663,1.3671,1.3686,1.3688,1.367,1.367,1.3669,0,1.3557,1.3573,1.3585,1.359,1.3602,1.3608,1.3613,1.3623,1.3629,1.3638,1.3642,1.3653,1.3658,1.3667,1.3672,1.3669,1.3687,1.3684,1.369,1.369,1.3693,1.3693,1.3709,1.3698,1.3697,1.3697,1.3697,0,1.3567,1.3577,1.3587,1.3594,1.3605,1.3611,1.3622,1.3627,1.3636,1.3644,1.3648,1.3656,1.3663,1.3672,1.3677,1.3689,1.3692,1.3695,1.3696,1.3694,1.3694,1.3697,1.3696,1.3698,1.3698,1.3698,1.3698,0,1.3573,1.358,1.3593,1.3605,1.3608,1.3615,1.3625,1.3633,1.3639,1.3649,1.3652,1.3661,1.3672,1.3679,1.3693,1.3696,1.371,1.3711,1.3707,1.3707,1.3713,1.3712,1.3732,1.3735,1.3722,1.3722,1.3722,0,1.3578,1.3586,1.3599,1.3605,1.3611,1.362,1.3627,1.3634,1.3641,1.3653,1.3659,1.3671,1.368,1.3698,1.3706,1.3717,1.3718,1.3724,1.3719,1.3718,1.3718,1.3717,1.3718,1.3724,1.3724,1.3724,1.3724,0,1.3588,1.3591,1.3601,1.3612,1.362,1.3629,1.3638,1.3643,1.3652,1.3659,1.3671,1.3679,1.3693,1.3705,1.3717,1.3723,1.3725,1.3726,1.3728,1.3726,1.3723,1.3725,1.3708,1.3725,1.3725,1.3725,1.3725,1.3725,1.3593,1.36,1.3611,1.3622,1.3629,1.3638,1.3646,1.3653,1.3663,1.3676,1.3679,1.3692,1.3702,1.3719,1.3725,1.3735,1.3735,1.3737,1.3738,1.3739,1.3739,1.3723,1.3738,1.3738,1.3738,1.3738,1.3738,0,1.3602,1.361,1.362,1.3633,1.3642,1.3644,1.3654,1.3662,1.3672,1.3682,1.3692,1.3706,1.3717,1.3727,1.3739,1.3745,1.3747,1.3748,1.3747,1.3749,1.3739,1.3736,1.3747,1.3747,1.3747,1.3747,1.3747,1.3747,1.3608,1.362,1.3626,1.3642,1.3649,1.3662,1.3668,1.3676,1.3684,1.3699,1.3709,1.3716,1.3726,1.3739,1.375,1.3752,1.3756,1.3758,1.376,1.3751,1.3749,1.3748,1.3746,1.3759,1.3759,1.377,1.377,1.377]},{"header":{"parameterUnit":"m.s-1","parameterCategory":1,"la1":30.2991,"la2":30.254,"lo1":-89.0895,"lo2":-89.0444,"dy":0.0017,"dx":0.0017,"nx":28,"ny":28,"refTime":"2024-03-08T09:00:00:Z","depth":0,"parameterNumber":3,"parameterNumberName":"V-component_of_WINDS"},"data":[0,0,0,0,0,0,0,0,0,0,0,0,0,0,0,0,0,0,0,0,0,0,0,0,0,0,0,0,0,0,0,0,0,0,0,0,0,0,0,0,0,0,0,0,0,0,0,0,0,0,0,0,0,0,0,0,0,0,-7.8969,-7.8971,0,-7.9158,-7.916,-7.9162,-7.9096,-7.9091,-7.9087,-7.9083,-7.9271,-7.9279,-7.9288,0,0,0,0,0,0,0,0,0,0,0,0,0,-7.8546,-7.8554,-7.8969,-7.8971,-7.8974,-7.9157,-7.916,-7.9162,-7.9096,-7.9091,-7.9086,-7.9081,-7.9268,-7.9278,-7.9289,0,0,0,0,0,0,0,0,0,0,0,0,0,-7.8732,-7.8557,-7.8968,-7.8963,-7.8964,-7.9157,-7.916,-7.9163,-7.9097,-7.9091,-7.9085,-7.9079,-7.9264,-7.9277,-7.9291,-7.9498,0,0,-7.9331,-7.9337,0,0,0,0,0,0,0,0,-7.8721,-7.8747,-7.8961,-7.8964,-7.8965,-7.9097,-7.9079,-7.9275,-7.9099,-7.9047,-7.9083,-7.9076,-7.9218,-7.9234,-7.9283,-7.9507,-7.9515,-7.9332,-7.934,-7.9346,-7.935,0,0,0,0,0,0,0,-7.8708,-7.8739,-7.9043,-7.8964,-7.8967,-7.8949,-7.8969,-7.9116,-7.9165,-7.9051,-7.9046,-7.907,-7.9217,-7.9271,-7.9287,-7.9518,-7.9332,-7.9344,-7.9352,-7.9357,-7.9921,-7.9928,0,0,0,0,0,0,-7.8695,-7.8728,-7.9037,-7.9049,-7.8826,-7.8962,-7.8984,-7.9061,-7.9163,-7.9173,-7.9075,-7.9066,-7.9251,-7.9272,-7.9294,-7.9544,-7.9346,-7.9359,-7.9366,-7.9914,-7.9923,-7.993,0,0,0,0,0,0,-7.8686,-7.8723,-7.903,-7.8888,-7.8925,-7.8976,-7.9063,-7.9068,-7.9121,-7.9182,-7.9189,-7.9121,-7.9247,-7.9275,-7.9448,-7.955,-7.9365,-7.9377,-7.9906,-7.9917,-7.9927,-8.0046,0,0,0,0,0,0,-7.8675,-7.8721,-7.8801,-7.889,-7.8933,-7.9183,-7.9069,-7.9076,-7.9145,-7.9135,-7.9227,-7.9236,-7.9244,-7.9429,-7.9462,-7.9565,-7.9387,-7.9897,-7.9911,-7.9923,-8.0034,-8.006,-8.0082,0,0,0,0,0,-7.866,-7.8826,-7.8806,-7.8843,-7.9035,-7.9189,-7.9214,-7.9222,-7.9153,-7.9234,-7.9273,-7.9233,-7.9533,-7.9447,-7.9483,-7.9592,-7.9891,-7.9907,-7.9922,-8.0023,-8.0055,-8.0081,0,0,0,0,0,0,-7.8746,-7.8838,-7.8816,-7.9016,-7.9096,-7.9178,-7.928,-7.9255,-7.9354,-7.934,-7.9344,-7.9365,-7.9544,-7.9585,-7.9487,-7.9798,-7.9701,-7.9725,-7.9765,-7.9796,-7.982,-7.9806,-7.9398,0,0,0,0,0,-7.8789,-7.8908,-7.898,-7.915,-7.9191,-7.9229,-7.9296,-7.9296,-7.9377,-7.941,-7.9461,-7.9541,-7.9653,-7.9726,-7.9833,-8.0039,-8.0058,-8.0131,-8.0155,-8.0175,-8.0196,-8.0308,-8.0342,-7.9982,-7.9982,-7.9981,0,0,-7.8877,-7.8942,-7.9016,-7.9169,-7.9231,-7.9353,-7.9258,-7.939,-7.948,-7.9429,-7.9597,-7.9638,-7.9726,-7.9917,-8.0004,-7.9957,-8.0299,-8.0195,-8.021,-8.022,-8.0328,-8.0362,-8.0392,-7.9993,-7.9991,-7.9989,0,0,-7.9101,-7.9163,-7.9311,-7.9375,-7.947,-7.9494,-7.953,-7.9617,-7.9642,-7.9811,-7.9776,-7.9882,-8.0075,-8.014,-8.0198,-8.0448,-8.0414,-8.0482,-8.0608,-8.0718,-8.0746,-8.0771,-8.0861,-8.0893,-8.0502,-8.0502,-8.0502,0,-7.9199,-7.9383,-7.939,-7.9527,-7.9595,-7.9556,-7.9706,-7.9767,-7.9892,-7.9939,-7.9885,-8.0127,-8.0184,-8.039,-8.0451,-8.0499,-8.0539,-8.0472,-8.0742,-8.0767,-8.0791,-8.0876,-8.091,-8.051,-8.0509,-8.0508,-8.0508,0,-7.9499,-7.9627,-7.9736,-7.9859,-7.9939,-8.0082,-8.0109,-8.0189,-8.0181,-8.0211,-8.0383,-8.045,-8.0569,-8.0618,-8.0611,-8.0823,-8.0791,-8.074,-8.0643,-8.0833,-8.0913,-8.0946,-8.0521,-8.0518,-8.0516,-8.0514,0,0,-7.9783,-7.991,-7.9949,-8.0005,-8.0108,-8.0206,-8.0346,-8.0465,-8.0534,-8.062,-8.0738,-8.0903,-8.0856,-8.0922,-8.0922,-8.1018,-8.1212,-8.0955,-8.0957,-8.1001,-8.1451,-8.149,-8.1528,-8.1191,-8.1197,-8.1202,-8.1444,0,-8.0016,-8.0265,-8.0276,-8.0502,-8.062,-8.0586,-8.0708,-8.0783,-8.0814,-8.0917,-8.095,-8.1068,-8.0997,-8.1037,-8.1131,-8.1169,-8.1303,-8.1152,-8.1299,-8.1304,-8.1279,-8.157,-8.1611,-8.1836,-8.1475,-8.148,-8.1484,0,-8.0322,-8.0421,-8.066,-8.0746,-8.0796,-8.0906,-8.1016,-8.1116,-8.12,-8.1216,-8.1291,-8.1277,-8.1419,-8.1317,-8.1512,-8.1409,-8.147,-8.1498,-8.1506,-8.1521,-8.1406,-8.1593,-8.1908,-8.1942,-8.1534,-8.153,-8.1526,0,-8.0506,-8.0699,-8.0867,-8.0916,-8.102,-8.1098,-8.1145,-8.1223,-8.1294,-8.139,-8.1436,-8.1546,-8.1607,-8.1692,-8.1707,-8.1631,-8.1903,-8.1802,-8.192,-8.192,-8.1979,-8.1975,-8.231,-8.2017,-8.2017,-8.2016,-8.2015,0,-8.0766,-8.0914,-8.0951,-8.1055,-8.1219,-8.1229,-8.139,-8.1431,-8.1501,-8.161,-8.1586,-8.1689,-8.1703,-8.1809,-8.1822,-8.1982,-8.2009,-8.2025,-8.2027,-8.2028,-8.2026,-8.2068,-8.2053,-8.2025,-8.2023,-8.2021,-8.202,0,-8.1,-8.1031,-8.1212,-8.1297,-8.1322,-8.1439,-8.1511,-8.1609,-8.1637,-8.1777,-8.181,-8.1854,-8.1978,-8.2002,-8.2147,-8.2156,-8.2347,-8.2332,-8.232,-8.2318,-8.2435,-8.2424,-8.2808,-8.2859,-8.2533,-8.2536,-8.2539,0,-8.1164,-8.1278,-8.1375,-8.1448,-8.1499,-8.1616,-8.169,-8.1703,-8.178,-8.1885,-8.1971,-8.2092,-8.219,-8.2389,-8.2433,-8.2545,-8.2533,-8.266,-8.2549,-8.2547,-8.2536,-8.2529,-8.2541,-8.2681,-8.2685,-8.2688,-8.269,0,-8.1453,-8.1463,-8.1571,-8.1685,-8.1773,-8.1863,-8.1948,-8.2008,-8.2033,-8.212,-8.2248,-8.2324,-8.2474,-8.2595,-8.2706,-8.2752,-8.2726,-8.2725,-8.2758,-8.2761,-8.2749,-8.2758,-8.2378,-8.2716,-8.2713,-8.2711,-8.271,-8.2709,-8.1658,-8.1757,-8.1842,-8.1963,-8.2028,-8.2109,-8.2206,-8.2247,-8.2355,-8.2479,-8.248,-8.262,-8.27,-8.2847,-8.29,-8.3008,-8.2968,-8.3016,-8.3028,-8.304,-8.3052,-8.2731,-8.3028,-8.3028,-8.3027,-8.3026,-8.3026,0,-8.1946,-8.1999,-8.211,-8.2231,-8.2326,-8.2294,-8.2387,-8.2468,-8.2592,-8.267,-8.2768,-8.2915,-8.3032,-8.3086,-8.3201,-8.3277,-8.3268,-8.3307,-8.3302,-8.3313,-8.3081,-8.3041,-8.3313,-8.3313,-8.3313,-8.3313,-8.3312,-8.3312,-8.2107,-8.2274,-8.2294,-8.2493,-8.2544,-8.2683,-8.2738,-8.2812,-8.2875,-8.304,-8.3139,-8.3173,-8.3242,-8.3362,-8.3468,-8.348,-8.3524,-8.3569,-8.3576,-8.3358,-8.3329,-8.3301,-8.3264,-8.3578,-8.3579,-8.38,-8.3802,-8.3803]}]]